Flag for South Africa Weather past 2 weeks in Stellenbosch, South Africa

Now
73 °F

Passing clouds.


Feels Like: 77 °F
Forecast: 46 / 74 °F
Wind: 15 mph from South

Location: Cape Town International Airport

Current Time: Apr 21, 2015 at 2:21:16 PM

Latest Report: Apr 21, 2015 at 2:00 PM


Visibility: N/A

Pressure: 30.09 "Hg

Humidity: 41%

Dew point: 48 °F

Location of StellenboschLocation

Historic Weather in Stellenbosch — Graph

°F

Stellenbosch temperature yesterday

Maximum temperature yesterday: 72 °F (at 2:00 PM)
Minimum temperature yesterday: 52 °F (at 3:00 AM)
Average temperature yesterday: 61 °F

Past Weeks' High & Low Weather Summary

 TemperatureHumidityPressure
High88 °F (Apr 9, 1:00 PM)100% (Apr 12, 8:00 AM)30.36 "Hg (Apr 12, 8:00 AM)
Low46 °F (Apr 16, 6:00 AM)24% (Apr 19, 2:00 PM)29.86 "Hg (Apr 10, 4:00 AM)
Average64 °F66%30.10 "Hg
* Reported Apr 6 1:00 PM — Apr 21 1:00 PM, Stellenbosch, Weather by CustomWeather, © 2015

Note: Actual official high and low records may vary slightly from our data, if they occured in-between our weather recording intervals... More about our weather records

Advertising

Stellenbosch weather history for previous 24 hours

 ConditionsComfort  
Time TempWeatherWind HumidityBarometerVisibility
1:00 PM
Tue, Apr 21
75 °FSunny.6 mph36%30.12 "Hg10 mi
12:00 PM73 °FPassing clouds.5 mph36%30.15 "HgN/A
11:00 AM72 °FSunny.2 mph41%30.15 "Hg10 mi
10:00 AM68 °FPassing clouds.3 mph49%30.18 "HgN/A
9:00 AM64 °FPassing clouds.10 mph56%30.18 "HgN/A
8:00 AM59 °FPassing clouds.12 mph68%30.15 "HgN/A
7:00 AM57 °FPassing clouds.12 mph67%30.15 "HgN/A
6:00 AM59 °FPassing clouds.20 mph68%30.15 "HgN/A
5:00 AM59 °FPassing clouds.17 mph72%30.15 "HgN/A
4:00 AM59 °FPassing clouds.20 mph72%30.15 "HgN/A
3:00 AM59 °FPassing clouds.15 mph72%30.18 "HgN/A
2:00 AM59 °FPassing clouds.13 mph72%30.18 "HgN/A
1:00 AM59 °FPassing clouds.14 mph72%30.21 "HgN/A
12:00 AM59 °FPassing clouds.17 mph72%30.21 "HgN/A
11:00 PM
Mon, Apr 20
59 °FPassing clouds.18 mph72%30.21 "HgN/A
10:00 PM59 °FPassing clouds.17 mph77%30.21 "HgN/A
9:00 PM61 °FPassing clouds.20 mph72%30.21 "HgN/A
8:00 PM59 °FPassing clouds.22 mph82%30.18 "HgN/A
7:00 PM61 °FPassing clouds.23 mph83%30.15 "HgN/A
6:00 PM63 °FPassing clouds.23 mph77%30.15 "HgN/A
5:00 PM66 °FPassing clouds.20 mph68%30.12 "HgN/A
4:00 PM70 °FPassing clouds.17 mph57%30.12 "HgN/A
3:00 PM72 °FPassing clouds.16 mph57%30.12 "HgN/A
2:00 PM72 °FPassing clouds.16 mph50%30.12 "HgN/A
Weather by CustomWeather, © 2015

See weather overviewHow to use our weather pages